Погода в Могилеве

Погода в Могилеве : погода сейчас, прогноз погоды и архив. Всё, что Вы хотите узнать о погоде в Могилеве!

Поиск расширенной информации на нашем сайте:

Другие новости

Новости СМИ2

Главная страница сайта

Новости сайта

03.07.2017

Напоминаем, что на нашем специализированном сайте Метеоцентр.Азия вы можете получить высокодетализированные автоматические прогнозы погоды по пунктам России, СНГ и мира в авиационном формате (включающие направление и скорость ветра, видимость, явления погоды, количество и форму облачности, нижнюю и верхнюю границу облачности).

Рекомендуем: Срочная компьютерная помощь в сходне - это гарантия качества.

Погода в Могилеве - сегодня

Время (UTC), дата Ветер
(°,м/с) 
Видим.   Явления Облачность Т
(°С)
Тd
(°С)
f(%) Тe
(°С)
Pmin
(гПа)
dP
(гПа)
Po
(мм)
O2
(г/м3)
Тmin Tmax R s Состояние
почвы
18 14.10.17 250 (З) 9000 м  слаб. ливневой дождь  10/8 1080 м кучево-дожд., средняя 
[Cb calv|Ac As]
+6.5 +4.4 86 +5  1015  -0.2  744  292    +8.6  0.3     
21 14.10.17 200 (Ю) 8000 м  слаб. дождь{ливн. осадки}  10/10 210 м 
[Frnb|Ns]
+6.5 +5.8 95 +5  1013.1  -1.8  742  291         
00 15.10.17 230 (ЮЗ) 5000 м  слаб. дождь{ливн. осадки}  10/10 240 м 
[Frnb|Ns]
+6.2 +5.8 97 +5  1010.4  -2.3  741  291         
03 15.10.17 270 (З) 9000 м  в посл. час дождь  10/10 210 м 
[St]
+7.6 +6.7 94 +6  1009.7  -0.9  740  289         
06 15.10.17 300 (СЗ) 10 км  {дождь}  9/9 600 м средняя, верхняя 
[St|As op|Ci fib]
+11 +9.2 89 +9  1009.1  -0.4  740  285         
09 15.10.17 310 (СЗ) 12-14{17}  14000 м    6/6 800 м 
[Sc]
+13.1 +7.8 70 +11  1010.6  1.6  741  283           
12 15.10.17 320 (СЗ) 12-13{17}  14000 м    8/4 1000 м средняя 
[Sc|Ac trans]
+13.7 +5.1 56 +12  1011.5  742  284           
15 15.10.17 300 (СЗ) 10-11{15}  14000 м    4/4 1000 м 
[Sc]
+11.1 +5.1 66 +9  1013.9  2.1  743  287           
18 15.10.17 300 (СЗ) 9-10{13}  12000 м    4/0 средняя 
[Ac trans]
+9.7 +5.8 77 +7  1017  2.9  745  289    +14.5       
21 15.10.17 300 (СЗ) 7{12}  10 км    8/0 верхняя 
[Ci sp]
+8.1 +5.6 84 +6  1018.3  1.2  746  291           
00 16.10.17 280 (З) 5{12}  10 км    8/0 верхняя 
[Ci sp]
+6.5 +4.4 86 +5  1020.1  1.5  747  293           
03 16.10.17 330 (СЗ) 10 км    10/10 330 м 
[St]
+7 +5 87 +6  1020.6  0.7  748  293           
06 16.10.17 270 (З) 6000 м  слаб. ливневой дождь  10/10 200 м кучево-дожд. 
[Cb calv]
+7.4 +6.5 94 +7  1021.2  0.5  748  292      0.0     
09 16.10.17 260 (З) 10 км    9/8 210 м средняя 
[Frnb|Ac trans]
+9.3 +7.8 90 +8  1020.4  -0.5  748  290      0.1     
12 16.10.17 260 (З) 12000 м    4/0 средняя, верхняя 
[Ac trans|Ci sp]
+13.7 +6.2 60 +13  1018.3  -1.7  747  285           
15 16.10.17 250 (З) 4{10}  10 км    9/9 540 м 
[Sc]
+11.7 +8.9 83 +11  1017.8  -0.7  746  287      0.3     
18 16.10.17 240 (ЮЗ) 10 км    9/9 600 м 
[Sc]
+11.5 +10.2 92 +13  1016.8  -1  745  286    +14.1  0.3     
21 16.10.17 230 (ЮЗ) 8000 м  дымка  9/9 870 м 
[Sc]
+12.3 +11.2 93 +15  1015.5  -1.2  744  285           
00 17.10.17 300 (СЗ) 9000 м  дымка  9/9 1020 м 
[Sc]
+13.7 +11.4 86 +16  1015.7  0.3  745  284           
03 17.10.17 300 (СЗ) 10 км    8/8 1080 м 
[Sc]
+11.9 +9.5 85 +12  1016.7  0.8  745  286           
06 17.10.17 320 (СЗ) 9000 м  дымка  6/6 400 м 
[Frnb]
+10.5 +9.3 92 +9  1019  2.2  747  288  +10.1         
09 17.10.17 310 (СЗ) 11000 м    8/4 300 м верхняя 
[Sc|Ci sp]
+12.5 +8.6 77 +12  1020.6  1.7  748  287           
12 17.10.17 280 (З) 14000 м    8/0 верхняя 
[Ci sp]
+13.6 +8 69 +13  1020.2  -0.2  748  286           
15 17.10.17 230 (ЮЗ) 12000 м    8/0 средняя, верхняя 
[Ac trans|Ci sp]
+11.7 +8.5 81 +12  1019.9  -0.5  748  287           
18 17.10.17 220 (ЮЗ) 10 км    9/0 средняя, верхняя 
[Ac trans|Ci sp]
+10.8 +8.5 86 +10  1018.1  -1.9  746  288    +13.8       
Время (UTC), дата Ветер
(°,м/с) 
Видим.   Явления Облачность Т
(°С)
Тd
(°С)
f(%) Тe
(°С)
Pmin
(гПа)
dP
(гПа)
Po
(мм)
O2
(г/м3)
Тmin Tmax R s Состояние
почвы

Для получения пояснительной информации подведите курсор к названию столбца.

ПОГОДА в Могилеве - архив

Всё, что Вы хотите узнать о погоде в Могилеве - удобно и подробно!

Выберите нужную дату (начиная с 1 января 2015* года) и нажмите кнопку "Найти".
Будут отображены архивные сводки погоды по пункту Могилев, начиная с указанной даты.


Отображать данные в формате CSV (для использования в таблицах Excel)


Внимание! Наш архив погоды предназначен исключительно для личного некоммерческого использования в познавательных целях. Если Вам необходимы официальные справки о состоянии погоды (для производственных, юридических, коммерческих и т.п. целей), обращайтесь в органы Росгидромета.

*Примечание: данная дата относится к архиву по метеостанциям СССР (Россия, СНГ, Балтия).
Архив по метеостанциям Зарубежной Европы и Азии (кроме Китая) хранится 10 дней, по другим регионам земного шара (Китай, Африка, Америка, Австралия, Океания) - 1 день.

Могилев - район местоположения метеостанции


Название, широта, долгота, высота метеостанции:
Могилев 53.9°ш. 30.1°д. 192 м над ур. моря [Беларусь]

Дополнительная информация

В oтличие oт бoльшинства пoгoдных сайтoв мы публикуем пoдрoбную метеoинфoрмацию в детальнoм прoфессиoнальнoм фoрмате.

Характеристики температуры и влажнoсти вoздуха измеряются на высoте 2 м в тени вдали oт зданий и деревьев.
Скoрoсть ветра измеряется на высoте 10 м (на урoвне рoста челoвека скoрoсть ветра ниже в 1.5-2 раза). Если метеoстанция нахoдится в гoрoде или в лесу, тo скoрoсть ветра занижена на 2-4 м/с пo сравнению с oткрытым местoм. Скoрoсть ветра над акватoриями крупных рек и oзёр, а также на вершинах хoлмoв на 2-5 м/с выше, чем в oбычных услoвиях.
Атмoсфернoе давление в разных тoчках местнoсти мoжет значительнo oтличаться oт давления на метеoстанции, в зависимoсти oт услoвий рельефа (при пoдъёме на 10 м давление пoнижается примернo на 1 мм рт.ст.).